^^
Calpe Station Historical Data
 
Daily Summary for January 26, 2021 Units:  Metric    English   Both
Daily Weekly Monthly Yearly Custom
  Current: High: Low: Average:
Temperature: 12.7 °C 15.8 °C 12.7 °C 13.9 °C
Dew Point: 9.7 °C 10.6 °C 9.7 °C 10.2 °C
Humidity: 82% 83% 71% 79%
Wind Speed: 14.5km/h 14.5km/h 0km/h 8.7km/h
Wind Gust: 22.5km/h 25.7km/h - -
WindNNW - - West
Pressure: 1016.9 hPa 1016.9 hPa 1014.2 hPa -
Precipitation: 0.0 mm      
Historical Graphs
 
 
Tabular Data for January 26, 2021
Time Temperature Dew Point Pressure Wind Wind Speed Wind Gust Humidity Rainfall Rate (Hourly) solar
00:00 15.8 °C 10.6 °C 1014.2 hPa NNW 8 km/h 11.3 km/h 71% 0.0 mm 0 W/m2
00:05 15.6 °C 10.4 °C 1014.4 hPa North 1.6 km/h 11.3 km/h 71% 0.0 mm 0 W/m2
00:10 15.4 °C 10.4 °C 1014.4 hPa North 1.6 km/h 12.9 km/h 72% 0.0 mm 0 W/m2
00:15 15.3 °C 10.4 °C 1014.5 hPa NNE 1.6 km/h 9.7 km/h 73% 0.0 mm 0 W/m2
00:20 15.2 °C 10.6 °C 1014.7 hPa Calm   9.7 km/h 74% 0.0 mm 0 W/m2
00:25 15.1 °C 10.4 °C 1014.9 hPa ENE 4.8 km/h 12.9 km/h 74% 0.0 mm 0 W/m2
00:30 14.9 °C 10.5 °C 1015.0 hPa ENE 8 km/h 11.3 km/h 75% 0.0 mm 0 W/m2
00:35 14.8 °C 10.6 °C 1015.0 hPa NE 3.2 km/h 11.3 km/h 76% 0.0 mm 0 W/m2
00:40 14.7 °C 10.4 °C 1015.2 hPa NNE 9.7 km/h 17.7 km/h 76% 0.0 mm 0 W/m2
00:45 14.4 °C 10.5 °C 1015.3 hPa North 8 km/h 14.5 km/h 77% 0.0 mm 0 W/m2
00:50 14.3 °C 10.5 °C 1015.4 hPa North 11.3 km/h 17.7 km/h 78% 0.0 mm 0 W/m2
00:55 14.1 °C 10.3 °C 1015.5 hPa North 8 km/h 12.9 km/h 78% 0.0 mm 0 W/m2
01:00 14 °C 10.4 °C 1015.6 hPa North 4.8 km/h 11.3 km/h 79% 0.0 mm 0 W/m2
01:05 13.8 °C 10.3 °C 1015.6 hPa North 3.2 km/h 11.3 km/h 79% 0.0 mm 0 W/m2
01:10 13.7 °C 10.3 °C 1015.6 hPa North 8 km/h 11.3 km/h 80% 0.0 mm 0 W/m2
01:15 13.6 °C 10.2 °C 1015.7 hPa North 8 km/h 17.7 km/h 80% 0.0 mm 0 W/m2
01:20 13.4 °C 10.3 °C 1015.8 hPa North 9.7 km/h 17.7 km/h 81% 0.0 mm 0 W/m2
01:25 13.3 °C 10.1 °C 1015.9 hPa NNW 11.3 km/h 20.9 km/h 81% 0.0 mm 0 W/m2
01:30 13.2 °C 10 °C 1015.9 hPa North 9.7 km/h 22.5 km/h 81% 0.0 mm 0 W/m2
01:35 13.1 °C 10.1 °C 1016.0 hPa NNW 9.7 km/h 14.5 km/h 82% 0.0 mm 0 W/m2
01:40 13 °C 10 °C 1016.0 hPa NNW 11.3 km/h 20.9 km/h 82% 0.0 mm 0 W/m2
01:45 12.9 °C 9.9 °C 1016.1 hPa NNW 12.9 km/h 20.9 km/h 82% 0.0 mm 0 W/m2
01:50 12.9 °C 9.9 °C 1016.1 hPa NNW 12.9 km/h 24.1 km/h 82% 0.0 mm 0 W/m2
01:55 12.9 °C 10.1 °C 1016.2 hPa NNW 14.5 km/h 24.1 km/h 83% 0.0 mm 0 W/m2
02:00 12.8 °C 10 °C 1016.3 hPa NNW 12.9 km/h 22.5 km/h 83% 0.0 mm 0 W/m2
02:05 12.8 °C 9.9 °C 1016.5 hPa NNW 14.5 km/h 22.5 km/h 83% 0.0 mm 0 W/m2
02:10 12.8 °C 9.9 °C 1016.6 hPa NNW 11.3 km/h 25.7 km/h 83% 0.0 mm 0 W/m2
02:15 12.7 °C 9.9 °C 1016.6 hPa NNW 12.9 km/h 20.9 km/h 83% 0.0 mm 0 W/m2
02:20 12.7 °C 9.9 °C 1016.8 hPa NNW 12.9 km/h 22.5 km/h 83% 0.0 mm 0 W/m2
02:25 12.7 °C 9.7 °C 1016.9 hPa NNW 14.5 km/h 22.5 km/h 82% 0.0 mm 0 W/m2
Juneau County Weather
Compliments of Weather Underground - 2 mb